RH
95 97 96 94 96 96 97 95 92 94 74 27 9 10 9 10 23 9 7 9 12 13 20 24 28 54 61 57 42 41 44 41
91 99 97 98 96 96 93 87 32 19 32 44 8 8 14 16 8 9 12 20 58 77 68 65 65 51 57 54 46 43 48 56
97 97 96 95 98 96 95 94 81 65 23 22 22 23 12 8 24 38 52 60 57 74 64 58 62 45 44 58 63 56 57 52
100 97 97 96 95 94 93 82 70 59 33 14 9 11 27 45 48 54 58 66 69 73 60 54 46 40 42 51 68 60 54 53
96 96 96 94 92 85 68 53 21 9 10 9 20 44 46 45 47 55 49 79 65 74 70 62 32 38 48 51 57 56 56 49
92 80 77 44 24 19 13 9 10 11 18 31 34 37 49 57 60 40 68 64 46 56 69 31 30 28 33 33 45 51 48 42
39 13 9 8 10 11 11 12 19 22 29 41 59 60 67 74 49 41 52 25 24 37 23 30 34 22 20 19 19 22 29 28
20 17 16 14 12 14 14 14 21 29 47 48 38 23 28 24 17 22 16 14 17 19 18 18 20 21 20 22 24 25 26 27
8 9 14 15 14 13 22 41 58 55 25 18 19 16 13 12 13 14 17 19 19 20 21 21 21 22 21 21 23 29 33 34
12 14 13 12 16 44 58 27 20 25 28 18 14 14 16 17 18 18 18 19 22 23 23 22 23 23 22 20 21 24 31 35
13 15 14 17 62 63 28 19 27 16 14 15 16 19 20 21 21 21 22 22 22 22 23 24 25 26 25 24 23 28 33 40
18 23 24 44 62 29 25 28 15 16 17 20 22 23 24 24 23 23 23 23 24 24 24 24 24 24 25 25 25 31 42 51
13 14 19 68 64 24 15 16 19 21 23 24 24 26 26 27 27 27 27 26 26 25 24 24 25 26 26 25 24 35 53 62
33 65 66 51 24 15 18 21 24 25 26 27 27 25 23 21 19 20 20 20 21 22 22 22 25 28 27 24 26 55 66 73
34 33 29 21 16 18 20 23 25 25 25 24 21 19 17 18 19 20 20 21 21 22 23 23 28 33 31 31 43 59 62 63
17 26 37 18 19 20 24 25 24 25 22 18 17 16 18 18 20 20 22 24 25 24 26 34 42 39 35 58 70 62 50 39
51 46 27 22 23 25 24 22 22 16 16 17 17 18 19 20 20 21 23 25 27 31 40 45 39 34 60 67 62 58 53 42
36 25 25 26 27 24 17 16 16 17 17 17 17 17 17 18 20 24 27 28 29 33 40 40 36 51 62 64 60 51 42 38
22 24 24 24 19 17 17 17 17 16 16 16 16 16 19 23 28 33 30 28 33 43 44 42 57 70 70 62 52 46 49 54
14 15 16 18 18 18 16 15 15 15 14 14 16 21 26 32 34 34 35 44 56 53 58 76 84 83 73 61 56 68 73 84
Wind_Speed
23 34 21 26 42 38 31 20 20 15 15 18 14 13 14 16 17 18 23 25 27 29 29 27 25 25 26 25 31 31 24 19
23 29 42 43 38 36 21 13 11 12 11 13 14 13 16 18 20 22 26 26 28 29 26 29 26 24 26 21 26 29 28 29
24 36 42 42 47 37 14 13 13 16 14 9 11 16 18 21 20 22 23 26 29 25 25 23 19 33 26 25 27 29 35 35
30 30 32 19 14 14 17 17 16 12 10 12 12 13 17 19 21 22 23 24 26 23 17 21 31 34 33 32 36 38 38 39
28 27 12 11 21 18 17 17 13 10 10 11 11 13 17 19 22 24 27 25 25 24 28 29 32 30 32 34 39 40 44 47
19 21 24 21 19 17 14 12 9 6 7 11 15 19 20 18 22 31 20 27 30 23 29 32 31 31 33 37 38 40 44 46
21 20 18 14 11 7 2 1 6 8 10 13 16 19 23 26 30 27 27 28 24 24 25 26 29 32 34 35 38 40 40 41
15 13 12 9 4 4 4 6 9 12 14 18 19 22 24 26 25 25 25 24 24 25 28 30 32 35 37 38 39 40 41 42
10 6 5 4 3 3 6 10 12 12 18 19 21 21 20 19 20 20 22 25 26 28 30 33 35 37 38 39 40 40 41 42
5 5 4 5 7 8 9 13 15 18 17 17 16 15 16 18 22 24 25 29 31 31 33 35 36 38 41 42 43 44 44 44
5 4 6 7 7 10 13 15 16 14 13 13 16 19 22 25 27 27 30 32 34 36 37 39 41 42 43 45 46 46 47 48
0 2 8 9 11 14 16 14 10 12 14 18 21 23 25 28 30 32 35 37 39 40 42 44 45 46 47 48 48 49 49 48
11 11 10 11 12 13 10 10 12 17 19 22 24 26 30 34 37 39 41 43 44 45 46 47 48 49 50 51 51 51 51 51
10 12 11 12 10 9 11 14 17 21 23 27 31 35 38 40 42 43 45 47 49 50 51 51 52 52 53 53 54 53 51 51
8 11 8 7 10 13 15 18 22 26 29 33 37 40 42 44 45 47 48 50 52 54 54 55 55 56 56 56 57 55 52 52
6 6 7 10 14 18 21 24 27 31 35 38 41 44 45 46 48 50 51 53 54 56 56 56 56 56 56 57 57 56 57 58
7 8 12 15 19 23 26 29 33 37 40 42 44 46 47 48 50 52 52 54 55 55 56 57 59 59 60 58 59 62 65 68
11 14 17 21 25 29 32 34 37 40 43 46 48 50 51 53 54 55 54 56 57 58 59 62 63 64 63 62 64 68 72 76
17 20 23 27 30 34 38 40 42 44 47 50 53 54 56 57 58 60 62 62 62 63 65 66 67 66 65 68 71 75 79 84
21 24 26 30 34 39 43 45 46 48 51 54 55 56 57 58 59 59 60 62 64 65 67 68 67 66 69 73 76 79 84 87
Wind_Direction
257 259 226 275 223 220 213 208 207 190 188 203 220 244 265 280 285 301 304 302 307 308 307 306 308 313 310 306 304 299 291 289
264 235 217 226 225 224 200 172 166 166 159 192 234 257 270 282 298 302 304 310 311 311 323 307 296 321 307 299 302 296 297 296
253 225 237 238 233 219 200 149 127 157 198 226 255 264 284 291 300 308 309 310 312 306 312 319 309 320 306 286 292 289 293 296
253 238 207 193 183 161 122 137 143 168 212 241 254 274 284 293 303 306 301 308 308 299 314 313 309 306 301 291 294 294 293 290
217 212 219 114 102 123 152 166 187 207 232 262 285 293 296 297 293 301 305 299 309 280 293 303 303 299 297 295 293 294 298 296
143 109 113 131 161 175 177 186 206 235 270 283 283 285 284 300 297 308 300 304 306 298 284 291 292 292 293 292 289 287 286 288
129 139 138 146 157 154 173 237 254 265 280 290 292 292 286 293 301 302 298 306 306 294 296 297 300 305 302 298 295 294 294 293
137 138 148 162 144 174 218 256 284 280 277 294 288 296 292 298 303 303 306 308 310 311 314 316 314 311 309 307 302 298 297 296
135 142 127 167 205 234 266 277 301 295 296 294 301 304 305 309 312 312 315 312 313 315 314 313 312 309 307 305 305 303 298 294
175 159 197 245 253 257 282 300 299 298 299 306 305 309 315 315 314 317 315 311 309 309 309 310 310 309 308 306 303 302 300 297
173 201 237 251 270 286 293 297 301 303 308 312 315 321 321 317 314 314 310 306 306 307 306 305 304 305 305 303 301 302 301 300
194 311 302 302 292 297 299 299 301 306 313 319 318 319 315 312 314 311 308 308 308 306 306 306 305 303 302 302 302 300 299 297
328 317 305 292 293 295 289 300 311 314 317 314 315 314 312 311 310 309 307 307 308 308 307 305 303 302 301 301 300 301 300 298
305 294 293 285 274 281 298 310 312 309 313 314 313 311 310 308 308 308 308 309 309 308 307 306 304 302 301 302 302 301 299 297
277 265 262 269 285 295 301 308 305 310 311 308 307 308 306 306 309 311 310 308 308 307 306 304 305 306 305 304 301 298 294 295
254 257 276 288 296 301 304 303 307 307 304 304 304 306 308 309 310 311 310 308 305 305 305 305 305 302 302 300 297 295 294 293
276 281 291 301 304 303 302 306 303 301 303 304 305 306 306 305 306 305 305 303 301 302 304 304 302 301 303 300 299 300 302 302
288 292 299 299 299 300 301 299 300 302 303 303 304 305 307 308 307 305 305 305 305 305 305 303 303 305 304 303 304 304 305 305
291 292 294 295 298 298 298 299 301 304 304 306 308 310 311 311 311 310 309 308 307 307 306 305 306 305 304 304 304 306 307 307
290 294 296 298 297 298 300 302 305 305 307 309 312 311 310 311 309 306 305 305 306 306 305 305 305 304 303 304 305 306 306 306